Kosmos-1891

operational
NORAD ID: 18402 Int'l Des: 1987-087 Owner: VMF Country: SU
LEOCIRCULARPOLAR

About Kosmos-1891

Description loading...

Live Position

Loading 3D Globe...

Upcoming Passes

Altitude History

Altitude vs Time

uPlot chart will show altitude changes over time

Two-Line Element Set

1 18402U 87087A 26061.13039010 .00000069 00000-0 56556-4 0 9993
2 18402 82.9207 294.3149 0051506 96.4076 264.2948 13.73922303923907
Epoch: Mar 2, 2026 • Age: 34 hours

Current Status

Altitude 1038.0 km
Velocity 7.32 km/s
Sub-Earth Point -53.55°S, 32.38°W
Launch Date Oct 14, 1987
Age 38.3 years
Type other

Technical Details

Classification Payload
Mass 800.00 kg
Dry Mass 800.00 kg
Total Mass 800.00 kg
Length 5.00 m
Diameter 2.10 m
Span 17.00 m
Shape Cyl + Ant
Manufacturer OAZ
Bus Type KAUR-1 11F627
Phase Status In Orbit
Owner/State VMF/SU

Large Constellations

Loading constellations...